Change the Weather History Date:

Saturday, April 28, 2012

  Actual Average Record
Temperature  
Mean Temperature 47 °F 52 °F  
Max Temperature 54 °F 64 °F 98 °F (1910)
Min Temperature 39 °F 40 °F 24 °F (1950)
Degree Days  
Heating Degree Days 18 14  
Month to date heating degree days 383 536  
Since 1 July heating degree days 5861 7381  
Cooling Degree Days 0 0  
Month to date cooling degree days 14 0  
Year to date cooling degree days 28 0  
Moisture  
Dew Point 40 °F    
Average Humidity 82    
Maximum Humidity 93    
Minimum Humidity 71    
Precipitation  
Precipitation 0.14 in 0.10 in 1.33 in (1896)
Month to date precipitation 2.40 2.80  
Year to date precipitation 6.35 5.72  
Snow  
Snow 0.00 in 0.10 in 10.50 in (1994)
Month to date snowfall 0.0 4.5  
Since 1 July snowfall 15.9 44.4  
Snow Depth 0.00 in    
Sea Level Pressure  
Sea Level Pressure 29.98 in    
Wind  
Wind Speed 12 mph (ESE)    
Max Wind Speed 20 mph    
Max Gust Speed 24 mph    
Visibility 10 miles    
Events Rain    
T = Trace of Precipitation, MM = Missing Value Source: NWS Daily Summary

Daily Weather History Graph

Daily Weather History Graph

Search for Another Location

Airport or City:

Trip Planner

Search our weather history database for the weather conditions in past years. The results will help you decide how hot, cold, wet, or windy it might be!

Date:

Astronomy

Apr. 28, 2012 Rise Set
Actual Time 6:23 AM CDT 8:26 PM CDT
Civil Twilight 5:52 AM CDT 8:57 PM CDT
Nautical Twilight 5:13 AM CDT 9:36 PM CDT
Astronomical Twilight 4:32 AM CDT 10:18 PM CDT
Moon 12:03 PM CDT (4/28) 1:53 AM CDT (4/28)
Length of Visible Light 15h 05m
Length of Day
14h 03m
Waxing Crescent, 43% of the Moon is Illuminated
Apr 28
Waxing Crescent
Apr 29
First Quarter
May 5
Full
May 12
Last Quarter
May 20
New

Hourly Weather History & Observations

Time (CDT) Temp. Windchill Dew Point Humidity Pressure Visibility Wind Dir Wind Speed Gust Speed Precip Events Conditions
12:56 AM 43.0 °F 36.0 °F 36.0 °F 76% 29.87 in 10.0 mi ESE 13.8 mph - 0.00 in Rain Light Rain
1:56 AM 41.0 °F 34.7 °F 37.0 °F 86% 29.87 in 9.0 mi East 10.4 mph - 0.05 in Rain Light Rain
2:40 AM 41.0 °F 34.7 °F 37.4 °F 87% 29.84 in 10.0 mi East 10.4 mph - 0.00 in Rain Light Rain
2:56 AM 41.0 °F 33.5 °F 37.4 °F 87% 29.84 in 10.0 mi East 13.8 mph - N/A Rain Light Rain
3:56 AM 39.9 °F 31.8 °F 37.0 °F 89% 29.86 in 8.0 mi East 15.0 mph - 0.01 in Rain Light Rain
4:56 AM 39.9 °F 31.8 °F 37.0 °F 89% 29.86 in 9.0 mi East 15.0 mph 21.9 mph 0.06 in Rain Light Rain
5:26 AM 39.2 °F 29.8 °F 37.4 °F 93% 29.83 in 8.0 mi East 18.4 mph 24.2 mph 0.02 in Rain Light Rain
5:56 AM 39.9 °F 32.1 °F 37.0 °F 89% 29.88 in 10.0 mi SE 13.8 mph 20.7 mph 0.02 in Rain Light Rain
6:56 AM 39.9 °F 32.9 °F 37.0 °F 89% 29.91 in 10.0 mi SE 11.5 mph 20.7 mph 0.00 in   Overcast
7:56 AM 39.9 °F 33.4 °F 37.0 °F 89% 29.94 in 8.0 mi ESE 10.4 mph - N/A   Overcast
8:56 AM 39.9 °F 32.1 °F 37.9 °F 93% 29.96 in 6.0 mi ESE 13.8 mph - N/A   Overcast
9:56 AM 41.0 °F 34.3 °F 39.0 °F 93% 29.97 in 10.0 mi SE 11.5 mph - N/A   Overcast
10:56 AM 43.0 °F 37.2 °F 39.9 °F 89% 29.98 in 10.0 mi SE 10.4 mph - N/A   Overcast
11:56 AM 45.0 °F 40.6 °F 39.9 °F 82% 30.01 in 10.0 mi SE 8.1 mph - N/A   Overcast
12:42 PM 46.4 °F 42.4 °F 41.0 °F 81% 29.99 in 10.0 mi SSE 8.1 mph - N/A   Overcast
12:56 PM 46.0 °F 41.4 °F 41.0 °F 83% 30.02 in 10.0 mi SSE 9.2 mph - N/A   Overcast
1:56 PM 48.9 °F - 42.1 °F 77% 30.02 in 10.0 mi SSE 8.1 mph - N/A   Overcast
2:56 PM 48.9 °F - 42.1 °F 77% 30.04 in 10.0 mi SSE 6.9 mph - N/A   Overcast
3:56 PM 53.1 °F - 45.0 °F 74% 30.03 in 10.0 mi ESE 13.8 mph - N/A   Mostly Cloudy
4:56 PM 53.1 °F - 44.1 °F 71% 30.02 in 10.0 mi East 13.8 mph - N/A   Mostly Cloudy
5:56 PM 52.0 °F - 44.1 °F 74% 30.03 in 10.0 mi ESE 13.8 mph - N/A   Mostly Cloudy
6:56 PM 52.0 °F - 44.1 °F 74% 30.05 in 10.0 mi ESE 15.0 mph - N/A   Mostly Cloudy
7:56 PM 50.0 °F - 44.1 °F 80% 30.07 in 10.0 mi ESE 13.8 mph - N/A   Mostly Cloudy
8:56 PM 48.0 °F - 43.0 °F 83% 30.09 in 10.0 mi SE 12.7 mph - N/A   Mostly Cloudy
9:45 PM 46.4 °F 41.1 °F 42.8 °F 87% 30.08 in 10.0 mi ESE 11.5 mph - N/A   Scattered Clouds
9:56 PM 46.9 °F - 42.1 °F 83% 30.11 in 10.0 mi SE 11.5 mph 20.7 mph N/A   Scattered Clouds
10:13 PM 46.4 °F 41.5 °F 42.8 °F 87% 30.09 in 10.0 mi SE 10.4 mph - N/A   Mostly Cloudy
10:56 PM 46.9 °F - 42.1 °F 83% 30.12 in 10.0 mi ESE 13.8 mph - N/A   Overcast
11:16 PM 46.4 °F 40.7 °F 42.8 °F 87% 30.08 in 10.0 mi SE 12.7 mph - N/A   Overcast
11:56 PM 46.9 °F - 43.0 °F 86% 30.12 in 10.0 mi SE 11.5 mph 23.0 mph N/A   Overcast